FW9444 Weather Reports


time (UTC)temp
C
wind
direction
speed
KPH
gust
KPH
rain 1hr
cm
rain 24hr
cm
rain mn
cm
humidity
%
barometer
mb
20260504160326 22 207 4.8 8.0 0.00 0.00 0.00 52 1012.8
20260504150751 20 302 4.8 9.7 0.00 0.00 0.00 58 1012.9
20260504150247 20 225 6.4 8.0 0.00 0.00 0.00 57 1012.8
20260504141217 17 178 3.2 3.2 0.00 0.00 0.00 64 1013.3
20260504140714 17 280 6.4 12.9 0.00 0.00 0.00 64 1013.2
20260504140209 17 187 3.2 3.2 0.00 0.00 0.00 65 1013.2
20260504130638 14 173 1.6 1.6 0.00 0.00 0.00 70 1013.6
20260504130134 13 180 1.6 3.2 0.00 0.00 0.00 69 1013.5
20260504110526 8 174 0.0 0.0 0.00 0.00 0.00 87 1012.5
20260504100442 7 174 0.0 0.0 0.00 0.00 0.00 90 1012.4
20260504081835 8 174 0.0 0.0 0.00 0.00 0.00 85 1012.1
20260504081332 8 174 0.0 0.0 0.00 0.00 0.00 85 1012.3
20260504080827 9 174 0.0 0.0 0.00 0.00 0.00 84 1012.4
20260504080325 9 174 0.0 0.0 0.00 0.00 0.00 84 1012.3
20260504070252 8 169 0.0 0.0 0.00 0.00 0.00 86 1013.0
20260504060213 8 167 0.0 0.0 0.00 0.00 0.00 88 1013.1
20260504050640 9 167 0.0 0.0 0.00 0.00 0.00 86 1013.5
20260504050137 9 167 0.0 0.0 0.00 0.00 0.00 86 1013.4
20260504045635 9 169 0.0 0.0 0.00 0.00 0.00 85 1013.6
20260504045135 9 167 0.0 0.0 0.00 0.00 0.00 84 1013.6
20260504044633 10 167 0.0 0.0 0.00 0.00 0.00 84 1013.6
20260504044129 10 167 0.0 0.0 0.00 0.00 0.00 83 1013.8
20260504043626 10 167 0.0 0.0 0.00 0.00 0.00 82 1013.5
20260504043124 10 169 0.0 0.0 0.00 0.00 0.00 81 1013.7
20260504042621 11 169 0.0 0.0 0.00 0.00 0.00 80 1013.7
20260504042117 11 172 0.0 0.0 0.00 0.00 0.00 79 1013.8
20260504041613 11 172 0.0 0.0 0.00 0.00 0.00 78 1013.8
20260504041110 11 182 0.0 0.0 0.00 0.00 0.00 78 1013.3
20260504040607 11 176 0.0 0.0 0.00 0.00 0.00 78 1013.3
20260504040103 10 177 0.0 0.0 0.00 0.00 0.00 79 1013.5
20260504035600 10 186 0.0 0.0 0.00 0.00 0.00 81 1013.6
20260504035056 10 192 0.0 0.0 0.00 0.00 0.00 82 1013.5
20260504034555 10 192 0.0 0.0 0.00 0.00 0.00 82 1013.5
20260504034051 10 192 0.0 0.0 0.00 0.00 0.00 82 1013.8
20260504033549 9 195 0.0 0.0 0.00 0.00 0.00 82 1013.7
20260504033046 9 195 0.0 0.0 0.00 0.00 0.00 82 1013.8
20260504032543 10 195 0.0 0.0 0.00 0.00 0.00 81 1013.9
20260504032040 9 195 0.0 0.0 0.00 0.00 0.00 79 1013.9
20260504031537 10 195 0.0 0.0 0.00 0.00 0.00 79 1014.0
20260504031033 10 195 0.0 0.0 0.00 0.00 0.00 79 1014.1
20260504030531 10 195 0.0 0.0 0.00 0.00 0.00 78 1014.2
20260504030027 10 195 0.0 0.0 0.00 0.00 0.00 78 1014.4
20260504025524 10 195 0.0 0.0 0.00 0.00 0.00 77 1014.2
20260504025020 10 195 0.0 0.0 0.00 0.00 0.00 76 1014.4
20260504024518 10 195 0.0 0.0 0.00 0.00 0.00 75 1014.3
20260504024015 10 195 0.0 0.0 0.00 0.00 0.00 76 1014.2
20260504023511 11 195 0.0 0.0 0.00 0.00 0.00 74 1014.1
20260504023007 11 195 0.0 0.0 0.00 0.00 0.00 74 1014.2
20260504022503 11 195 0.0 0.0 0.00 0.00 0.00 74 1013.7
20260504022000 11 195 0.0 0.0 0.00 0.00 0.00 72 1014.0
20260504021457 11 195 0.0 0.0 0.00 0.00 0.00 73 1014.0
20260504020954 11 195 0.0 0.0 0.00 0.00 0.00 72 1014.0
20260504020450 11 195 0.0 0.0 0.00 0.00 0.00 71 1013.9
20260504015947 11 195 0.0 0.0 0.00 0.00 0.00 71 1013.8
20260504015444 12 195 0.0 0.0 0.00 0.00 0.00 70 1013.8
20260504014939 12 195 0.0 0.0 0.00 0.00 0.00 69 1013.8
20260504014436 12 195 0.0 0.0 0.00 0.00 0.00 68 1013.7
20260504013933 12 195 0.0 0.0 0.00 0.00 0.00 68 1013.6
20260504013431 12 195 0.0 0.0 0.00 0.00 0.00 67 1013.3
20260504012927 12 195 0.0 0.0 0.00 0.00 0.00 66 1013.4
20260504012425 13 195 0.0 0.0 0.00 0.00 0.00 65 1013.2
20260504011922 13 195 0.0 0.0 0.00 0.00 0.00 64 1013.0
20260504011419 13 195 0.0 0.0 0.00 0.00 0.00 63 1013.1
20260504010915 13 195 0.0 0.0 0.00 0.00 0.00 63 1013.2
20260504010411 13 196 0.0 0.0 0.00 0.00 0.00 62 1013.0
20260504005907 13 196 0.0 0.0 0.00 0.00 0.00 59 1013.0
20260504005404 14 196 0.0 0.0 0.00 0.00 0.00 58 1013.1
20260504004902 15 196 0.0 0.0 0.00 0.00 0.00 58 1013.1
20260504004400 15 196 0.0 0.0 0.00 0.00 0.00 56 1013.1
20260504003855 15 196 0.0 0.0 0.00 0.00 0.00 54 1013.0
20260504003352 16 197 0.0 0.0 0.00 0.00 0.00 52 1013.0
20260504002849 16 197 0.0 0.0 0.00 0.00 0.00 49 1012.9
20260504002346 17 206 0.0 0.0 0.00 0.00 0.00 48 1013.1
20260504001843 17 206 0.0 0.0 0.00 0.00 0.00 45 1013.3
20260504001340 17 204 0.0 0.0 0.00 0.00 0.00 44 1013.2
20260504000837 17 209 0.0 0.0 0.00 0.00 0.00 43 1013.5
20260504000334 18 270 1.6 1.6 0.00 0.00 0.00 42 1013.2
20260503235832 18 188 0.0 0.0 0.00 0.00 0.00 42 1013.4
20260503235329 18 218 1.6 1.6 0.00 0.00 0.00 42 1013.3
20260503234827 19 340 1.6 3.2 0.00 0.00 0.00 40 1013.5
20260503234324 19 355 0.0 0.0 0.00 0.00 0.00 41 1013.5
20260503233822 20 75 1.6 3.2 0.00 0.00 0.00 39 1013.5
20260503233317 20 226 0.0 0.0 0.00 0.00 0.00 38 1013.4
20260503232814 20 209 1.6 1.6 0.00 0.00 0.00 37 1013.5
20260503232312 20 180 1.6 1.6 0.00 0.00 0.00 38 1013.5
20260503231810 19 241 0.0 0.0 0.00 0.00 0.00 39 1013.6
20260503231306 20 275 1.6 3.2 0.00 0.00 0.00 38 1013.7
20260503230802 20 181 1.6 3.2 0.00 0.00 0.00 36 1013.8
20260503230300 20 225 1.6 1.6 0.00 0.00 0.00 37 1013.6
20260503225757 20 215 0.0 1.6 0.00 0.00 0.00 37 1013.7
20260503225252 20 273 1.6 3.2 0.00 0.00 0.00 37 1014.0
20260503224749 20 195 4.8 8.0 0.00 0.00 0.00 37 1013.8
20260503224247 20 343 3.2 3.2 0.00 0.00 0.00 37 1013.7
20260503223744 20 209 1.6 1.6 0.00 0.00 0.00 37 1013.8
20260503223242 20 264 3.2 4.8 0.00 0.00 0.00 35 1013.7
20260503222738 21 253 3.2 3.2 0.00 0.00 0.00 37 1013.9
20260503222236 21 226 1.6 3.2 0.00 0.00 0.00 38 1013.8
20260503221734 21 239 3.2 3.2 0.00 0.00 0.00 38 1014.1
20260503221231 21 305 3.2 3.2 0.00 0.00 0.00 36 1014.0
20260503220727 21 285 0.0 1.6 0.00 0.00 0.00 37 1014.2
20260503220225 21 264 1.6 1.6 0.00 0.00 0.00 37 1014.1
20260503215721 21 294 1.6 3.2 0.00 0.00 0.00 36 1014.1
20260503215219 20 217 1.6 1.6 0.00 0.00 0.00 38 1014.2
20260503214717 21 320 1.6 3.2 0.00 0.00 0.00 38 1014.3
20260503214213 21 193 4.8 8.0 0.00 0.00 0.00 38 1014.1
20260503213711 20 158 8.0 9.7 0.00 0.00 0.00 36 1014.3
20260503213208 20 280 1.6 3.2 0.00 0.00 0.00 36 1014.5
20260503212705 21 318 3.2 4.8 0.00 0.00 0.00 38 1014.4
20260503212203 21 241 3.2 3.2 0.00 0.00 0.00 37 1014.5
20260503211700 21 324 3.2 8.0 0.00 0.00 0.00 37 1014.8
20260503211155 21 295 3.2 3.2 0.00 0.00 0.00 39 1014.6
20260503210652 21 311 4.8 9.7 0.00 0.00 0.00 38 1014.7
20260503210149 21 310 4.8 8.0 0.00 0.00 0.00 38 1014.6
20260503205644 20 229 0.0 0.0 0.00 0.00 0.00 39 1014.8
20260503205141 21 299 3.2 3.2 0.00 0.00 0.00 38 1014.8
20260503204637 20 215 0.0 0.0 0.00 0.00 0.00 41 1014.8
20260503204135 21 179 3.2 3.2 0.00 0.00 0.00 38 1015.0
20260503203632 20 27 4.8 4.8 0.00 0.00 0.00 38 1014.9
20260503203130 20 317 1.6 1.6 0.00 0.00 0.00 39 1015.2
20260503202627 20 204 1.6 1.6 0.00 0.00 0.00 39 1015.3
20260503202125 21 296 4.8 4.8 0.00 0.00 0.00 39 1015.3
20260503201623 21 175 0.0 0.0 0.00 0.00 0.00 38 1015.3
20260503201120 20 250 0.0 1.6 0.00 0.00 0.00 40 1015.5
20260503200616 20 239 3.2 4.8 0.00 0.00 0.00 40 1015.5
20260503200112 20 206 3.2 4.8 0.00 0.00 0.00 36 1015.6
20260503195609 20 3 1.6 4.8 0.00 0.00 0.00 36 1015.7
20260503195106 20 311 4.8 8.0 0.00 0.00 0.00 37 1016.0
20260503194603 20 244 0.0 0.0 0.00 0.00 0.00 41 1016.0
20260503194058 20 219 6.4 9.7 0.00 0.00 0.00 41 1016.0
20260503193555 20 215 0.0 0.0 0.00 0.00 0.00 44 1016.5
20260503193050 19 225 0.0 0.0 0.00 0.00 0.00 44 1016.6
20260503192547 20 193 4.8 8.0 0.00 0.00 0.00 41 1016.4
20260503192043 20 252 0.0 0.0 0.00 0.00 0.00 41 1016.6
20260503191539 19 90 1.6 3.2 0.00 0.00 0.00 41 1016.6
20260503191036 20 336 1.6 3.2 0.00 0.00 0.00 39 1016.8
20260503190533 20 90 4.8 8.0 0.00 0.00 0.00 42 1016.6
20260503190031 20 336 6.4 8.0 0.00 0.00 0.00 40 1016.9
20260503185527 20 30 0.0 1.6 0.00 0.00 0.00 43 1017.0
20260503185027 19 216 0.0 0.0 0.00 0.00 0.00 44 1017.0
20260503184523 19 276 0.0 0.0 0.00 0.00 0.00 45 1017.1
20260503184020 18 201 1.6 1.6 0.00 0.00 0.00 49 1016.9
20260503183516 18 170 4.8 4.8 0.00 0.00 0.00 47 1017.0
20260503183013 18 299 3.2 3.2 0.00 0.00 0.00 48 1017.1
20260503182512 19 279 4.8 8.0 0.00 0.00 0.00 49 1017.1
20260503182009 19 232 1.6 3.2 0.00 0.00 0.00 47 1017.3
20260503181506 18 310 3.2 3.2 0.00 0.00 0.00 47 1017.3
20260503181002 18 228 0.0 0.0 0.00 0.00 0.00 46 1017.4
20260503180500 18 321 1.6 1.6 0.00 0.00 0.00 47 1017.2
20260503175957 18 185 3.2 3.2 0.00 0.00 0.00 45 1017.4
20260503175455 18 242 4.8 9.7 0.00 0.00 0.00 46 1017.4
20260503174951 18 214 0.0 0.0 0.00 0.00 0.00 49 1017.4
20260503174449 18 217 0.0 1.6 0.00 0.00 0.00 47 1017.6
20260503173944 18 185 4.8 4.8 0.00 0.00 0.00 50 1017.4
20260503173440 18 200 1.6 1.6 0.00 0.00 0.00 50 1017.8
20260503172937 18 217 1.6 3.2 0.00 0.00 0.00 51 1017.8
20260503172434 18 26 1.6 1.6 0.00 0.00 0.00 49 1017.7
20260503171931 18 339 1.6 1.6 0.00 0.00 0.00 49 1017.8
20260503171427 18 215 6.4 12.9 0.00 0.00 0.00 51 1018.0
20260503170925 18 175 3.2 8.0 0.00 0.00 0.00 48 1017.9
20260503170421 18 195 1.6 3.2 0.00 0.00 0.00 51 1017.9